,,,PA_Meas_PMT16A,,PR_Meas_QMR101_102,,RH_Meas_QMH101,,SR_Meas_QMS101,,TA_Meas_QMH101,,GenWind,,GenWind,
date,time,status,PA,status,PR,status,RH,status,SR,status,TA,status,DirAvg,status,SpdAvg,
2009-12-18, 00:00:04,VALID,1006.15,VALID,0,VALID,84.4593,VALID,0,VALID,26.0206,VALID,357,VALID,0.859375,
2009-12-18, 00:01:04,VALID,1006.11,VALID,0,VALID,84.4975,VALID,0,VALID,25.9622,VALID,358,VALID,1.09023,
2009-12-18, 00:02:04,VALID,1006.12,VALID,0,VALID,84.6729,VALID,0,VALID,25.9232,VALID,345,VALID,1.01289,
2009-12-18, 00:03:04,VALID,1006.07,VALID,0,VALID,84.8713,VALID,0,VALID,25.8843,VALID,345,VALID,0.942578,
2009-12-18, 00:04:04,VALID,1006.09,VALID,0,VALID,84.9934,VALID,0,VALID,25.8648,VALID,346,VALID,0.462891,
2009-12-18, 00:05:04,VALID,1006.05,VALID,0,VALID,85.2451,VALID,0,VALID,25.8648,VALID,5,VALID,0.600781,
2009-12-18, 00:06:04,VALID,1006.05,VALID,0,VALID,85.207,VALID,0,VALID,25.8648,VALID,328,VALID,0.353906,
2009-12-18, 00:07:04,VALID,1006.05,VALID,0,VALID,84.9247,VALID,0,VALID,25.8843,VALID,313,VALID,0.819531,
2009-12-18, 00:08:04,VALID,1006.08,VALID,0,VALID,84.7263,VALID,0,VALID,25.9232,VALID,297,VALID,0.696484,
2009-12-18, 00:09:04,VALID,1006.1,VALID,0,VALID,84.6501,VALID,0,VALID,25.9213,VALID,264,VALID,0.876953,
2009-12-18, 00:10:04,VALID,1006.08,VALID,0,VALID,84.4975,VALID,0,VALID,25.9622,VALID,271,VALID,0.0527344,
2009-12-18, 00:11:04,VALID,1006.11,VALID,0,VALID,84.4822,VALID,0,VALID,25.9817,VALID,271,VALID,0.124609,
2009-12-18, 00:12:04,VALID,1006.07,VALID,0,VALID,84.3678,VALID,0,VALID,25.9817,VALID,271,VALID,0.330859,
2009-12-18, 00:13:04,VALID,1006.05,VALID,0,VALID,84.2991,VALID,0,VALID,25.9797,VALID,271,VALID,0.0414063,
2009-12-18, 00:14:04,VALID,1006,VALID,0,VALID,84.3983,VALID,0,VALID,25.9817,VALID,271,VALID,0.253906,
2009-12-18, 00:15:04,VALID,1006,VALID,0,VALID,84.3144,VALID,0,VALID,25.9602,VALID,271,VALID,0.110156,
2009-12-18, 00:16:04,VALID,1005.96,VALID,0,VALID,84.3373,VALID,0,VALID,25.9817,VALID,286,VALID,1.00703,
2009-12-18, 00:17:04,VALID,1005.98,VALID,0,VALID,84.2457,VALID,0,VALID,26.0012,VALID,287,VALID,0.9125,
2009-12-18, 00:18:04,VALID,1005.91,VALID,0,VALID,84.0855,VALID,0,VALID,25.9797,VALID,272,VALID,0.616016,
2009-12-18, 00:19:04,VALID,1005.9,VALID,0,VALID,83.8567,VALID,0,VALID,25.9992,VALID,281,VALID,1.15625,
2009-12-18, 00:20:04,VALID,1005.86,VALID,0,VALID,83.7422,VALID,0,VALID,26.0206,VALID,293,VALID,0.3375,
2009-12-18, 00:21:04,VALID,1005.84,VALID,0,VALID,83.7346,VALID,0,VALID,26.0596,VALID,278,VALID,0.216016,
2009-12-18, 00:22:04,VALID,1005.83,VALID,0,VALID,83.727,VALID,0,VALID,26.0596,VALID,282,VALID,0.735937,
2009-12-18, 00:23:04,VALID,1005.86,VALID,0,VALID,83.849,VALID,0,VALID,26.0596,VALID,291,VALID,0.345703,
2009-12-18, 00:24:04,VALID,1005.86,VALID,0,VALID,83.7804,VALID,0,VALID,26.0596,VALID,275,VALID,0.19375,
2009-12-18, 00:25:04,VALID,1005.84,VALID,0,VALID,83.6202,VALID,0,VALID,26.0596,VALID,340,VALID,0.836328,
2009-12-18, 00:26:04,VALID,1005.83,VALID,0,VALID,83.6659,VALID,0,VALID,26.0401,VALID,354,VALID,1.13203,
2009-12-18, 00:27:04,VALID,1005.83,VALID,0,VALID,83.7193,VALID,0,VALID,26.0401,VALID,1,VALID,1.04492,
2009-12-18, 00:28:04,VALID,1005.82,VALID,0,VALID,83.9558,VALID,0,VALID,26.0206,VALID,2,VALID,1.02305,
2009-12-18, 00:29:04,VALID,1005.79,VALID,0,VALID,83.8414,VALID,0,VALID,25.9992,VALID,2,VALID,1.13398,
2009-12-18, 00:30:04,VALID,1005.77,VALID,0,VALID,84.1466,VALID,0,VALID,25.9797,VALID,6,VALID,1.04883,
2009-12-18, 00:31:04,VALID,1005.75,VALID,0,VALID,83.8872,VALID,0,VALID,25.9797,VALID,354,VALID,1.16133,
2009-12-18, 00:32:04,VALID,1005.73,VALID,0,VALID,83.3989,VALID,0,VALID,25.9797,VALID,349,VALID,1.04336,
2009-12-18, 00:33:04,VALID,1005.75,VALID,0,VALID,83.5591,VALID,0.100563,VALID,26.0206,VALID,358,VALID,1.05898,
2009-12-18, 00:34:04,VALID,1005.72,VALID,0,VALID,83.7498,VALID,0.100563,VALID,25.9797,VALID,360,VALID,0.83125,
2009-12-18, 00:35:04,VALID,1005.72,VALID,0,VALID,83.8109,VALID,0.100563,VALID,25.9797,VALID,355,VALID,0.783594,
2009-12-18, 00:36:04,VALID,1005.75,VALID,0,VALID,83.788,VALID,0.100563,VALID,25.9602,VALID,344,VALID,0.561328,
2009-12-18, 00:37:04,VALID,1005.74,VALID,0,VALID,83.994,VALID,0.100563,VALID,25.9427,VALID,326,VALID,0.267578,
2009-12-18, 00:38:04,VALID,1005.74,VALID,0,VALID,84.2152,VALID,0,VALID,25.9213,VALID,332,VALID,0.251563,
2009-12-18, 00:39:04,VALID,1005.72,VALID,0,VALID,84.2,VALID,0,VALID,25.9018,VALID,350,VALID,0.0972656,
2009-12-18, 00:40:04,VALID,1005.71,VALID,0,VALID,84.2991,VALID,0,VALID,25.8629,VALID,336,VALID,0.348047,
2009-12-18, 00:41:04,VALID,1005.67,VALID,0,VALID,84.2991,VALID,0,VALID,25.8629,VALID,334,VALID,0.426562,
2009-12-18, 00:42:04,VALID,1005.69,VALID,0,VALID,84.4975,VALID,0,VALID,25.8629,VALID,334,VALID,0.470703,
2009-12-18, 00:43:04,VALID,1005.64,VALID,0,VALID,84.5433,VALID,0,VALID,25.8239,VALID,344,VALID,0.655469,
2009-12-18, 00:44:04,VALID,1005.6,VALID,0,VALID,84.6806,VALID,0,VALID,25.8453,VALID,354,VALID,0.796875,
2009-12-18, 00:45:04,VALID,1005.54,VALID,0,VALID,84.94,VALID,0.100563,VALID,25.7655,VALID,12,VALID,0.869531,
2009-12-18, 00:46:04,VALID,1005.54,VALID,0,VALID,85.3595,VALID,0.100563,VALID,25.7071,VALID,17,VALID,0.645703,
2009-12-18, 00:47:04,VALID,1005.52,VALID,0,VALID,85.474,VALID,0.100563,VALID,25.6876,VALID,14,VALID,0.643359,
2009-12-18, 00:48:04,VALID,1005.5,VALID,0,VALID,85.3214,VALID,0.100563,VALID,25.6486,VALID,344,VALID,0.588672,
2009-12-18, 00:49:04,VALID,1005.52,VALID,0,VALID,85.2222,VALID,0.100563,VALID,25.6292,VALID,333,VALID,0.290234,
2009-12-18, 00:50:04,VALID,1005.51,VALID,0,VALID,85.5198,VALID,0,VALID,25.6486,VALID,333,VALID,0.028125,
2009-12-18, 00:51:04,VALID,1005.49,VALID,0,VALID,85.4435,VALID,0.100563,VALID,25.6097,VALID,333,VALID,0.00664063,
2009-12-18, 00:52:04,VALID,1005.46,VALID,0,VALID,85.474,VALID,0,VALID,25.6097,VALID,333,VALID,0.0410156,
2009-12-18, 00:53:04,VALID,1005.45,VALID,0,VALID,85.3443,VALID,0.100563,VALID,25.5902,VALID,288,VALID,0.842188,
2009-12-18, 00:54:04,VALID,1005.42,VALID,0,VALID,85.3214,VALID,0.100563,VALID,25.6097,VALID,281,VALID,0.327344,
2009-12-18, 00:55:04,VALID,1005.43,VALID,0,VALID,84.9781,VALID,0.100563,VALID,25.6272,VALID,277,VALID,0.204688,
2009-12-18, 00:56:04,VALID,1005.42,VALID,0,VALID,84.6272,VALID,0.100563,VALID,25.6662,VALID,286,VALID,0.682031,
2009-12-18, 00:57:04,VALID,1005.42,VALID,0,VALID,84.4441,VALID,0.100563,VALID,25.7051,VALID,350,VALID,0.616406,
2009-12-18, 00:58:04,VALID,1005.37,VALID,0,VALID,84.1313,VALID,0,VALID,25.746,VALID,347,VALID,0.670313,
2009-12-18, 00:59:04,VALID,1005.38,VALID,0,VALID,83.8567,VALID,0,VALID,25.7869,VALID,354,VALID,0.803516,
2009-12-18, 01:00:04,VALID,1005.37,VALID,0,VALID,83.6202,VALID,0,VALID,25.8259,VALID,356,VALID,1.03047,
2009-12-18, 01:01:04,VALID,1005.35,VALID,0,VALID,83.4142,VALID,0,VALID,25.8648,VALID,355,VALID,0.523438,
2009-12-18, 01:02:04,VALID,1005.35,VALID,0,VALID,83.1929,VALID,0,VALID,25.8843,VALID,348,VALID,0.658203,
2009-12-18, 01:03:04,VALID,1005.33,VALID,0,VALID,83.0251,VALID,0,VALID,25.9232,VALID,339,VALID,0.655469,
2009-12-18, 01:04:04,VALID,1005.31,VALID,0,VALID,83.254,VALID,0,VALID,25.9232,VALID,3,VALID,1.12305,
2009-12-18, 01:05:04,VALID,1005.34,VALID,0,VALID,83.2921,VALID,0,VALID,25.9232,VALID,270,VALID,0.730469,
2009-12-18, 01:06:04,VALID,1005.33,VALID,0,VALID,83.2387,VALID,0,VALID,25.9038,VALID,271,VALID,0.337109,
2009-12-18, 01:07:04,VALID,1005.27,VALID,0,VALID,83.2769,VALID,0,VALID,25.9232,VALID,324,VALID,0.303906,
2009-12-18, 01:08:04,VALID,1005.19,VALID,0,VALID,83.0251,VALID,0,VALID,25.9232,VALID,351,VALID,0.309375,
2009-12-18, 01:09:04,VALID,1005.18,VALID,0,VALID,82.8496,VALID,0,VALID,25.9232,VALID,330,VALID,0.248828,
2009-12-18, 01:10:04,VALID,1005.21,VALID,0,VALID,82.5674,VALID,0,VALID,25.9642,VALID,314,VALID,0.901563,
2009-12-18, 01:11:04,VALID,1005.19,VALID,0,VALID,82.1096,VALID,0,VALID,25.9797,VALID,277,VALID,1.3418,
2009-12-18, 01:12:04,VALID,1005.2,VALID,0,VALID,81.9647,VALID,0,VALID,26.0401,VALID,286,VALID,0.623828,
2009-12-18, 01:13:04,VALID,1005.14,VALID,0,VALID,81.7969,VALID,0,VALID,26.0381,VALID,284,VALID,0.61875,
2009-12-18, 01:14:04,VALID,1005.14,VALID,0,VALID,81.6138,VALID,0,VALID,26.0596,VALID,4,VALID,0.706641,
2009-12-18, 01:15:04,VALID,1005.11,VALID,0,VALID,81.6672,VALID,0,VALID,26.0791,VALID,324,VALID,0.551562,
2009-12-18, 01:16:04,VALID,1005.11,VALID,0,VALID,81.3849,VALID,0,VALID,26.0791,VALID,297,VALID,0.922656,
2009-12-18, 01:17:04,VALID,1005.09,VALID,0,VALID,81.4764,VALID,0,VALID,26.0596,VALID,328,VALID,0.375,
2009-12-18, 01:18:04,VALID,1005.08,VALID,0,VALID,81.2476,VALID,0,VALID,26.0596,VALID,352,VALID,0.597656,
2009-12-18, 01:19:04,VALID,1005.05,VALID,0,VALID,81.2247,VALID,0,VALID,26.0596,VALID,306,VALID,0.656641,
2009-12-18, 01:20:04,VALID,1005.06,VALID,0,VALID,81.1408,VALID,0,VALID,26.0791,VALID,321,VALID,0.802734,
2009-12-18, 01:21:04,VALID,1005.03,VALID,0,VALID,81.0569,VALID,0,VALID,26.0381,VALID,323,VALID,0.560938,
2009-12-18, 01:22:04,VALID,1004.96,VALID,0,VALID,81.0263,VALID,0,VALID,26.0596,VALID,327,VALID,0.501953,
2009-12-18, 01:23:04,VALID,1004.95,VALID,0,VALID,81.2018,VALID,0,VALID,26.0791,VALID,286,VALID,0.332812,
2009-12-18, 01:24:04,VALID,1004.96,VALID,0,VALID,80.8738,VALID,0,VALID,26.0596,VALID,357,VALID,0.816797,
2009-12-18, 01:25:04,VALID,1004.93,VALID,0,VALID,81.0645,VALID,0,VALID,26.0576,VALID,3,VALID,0.53125,
2009-12-18, 01:26:04,VALID,1004.9,VALID,0,VALID,80.8966,VALID,0,VALID,26.0576,VALID,280,VALID,0.639453,
2009-12-18, 01:27:04,VALID,1004.9,VALID,0,VALID,80.9195,VALID,0,VALID,26.0576,VALID,350,VALID,0.837891,
2009-12-18, 01:28:04,VALID,1004.88,VALID,0,VALID,81.0187,VALID,0,VALID,26.0791,VALID,345,VALID,0.820703,
2009-12-18, 01:29:04,VALID,1004.88,VALID,0,VALID,81.3544,VALID,0,VALID,26.0791,VALID,337,VALID,0.221484,
2009-12-18, 01:30:04,VALID,1004.87,VALID,0,VALID,81.3467,VALID,0,VALID,26.0401,VALID,346,VALID,0.840625,
2009-12-18, 01:31:04,VALID,1004.89,VALID,0,VALID,81.362,VALID,0.100563,VALID,26.0187,VALID,358,VALID,0.222656,
2009-12-18, 01:32:04,VALID,1004.9,VALID,0,VALID,81.301,VALID,0,VALID,26.0206,VALID,356,VALID,0.789063,
2009-12-18, 01:33:04,VALID,1004.91,VALID,0,VALID,81.3162,VALID,0,VALID,26.0012,VALID,336,VALID,0.797656,
2009-12-18, 01:34:04,VALID,1004.89,VALID,0,VALID,81.3239,VALID,0,VALID,25.9817,VALID,325,VALID,0.0121094,
2009-12-18, 01:35:04,VALID,1004.93,VALID,0,VALID,81.0416,VALID,0,VALID,25.9817,VALID,338,VALID,0.997266,
2009-12-18, 01:36:04,VALID,1004.91,VALID,0,VALID,80.8661,VALID,0,VALID,25.9817,VALID,338,VALID,0.344531,
2009-12-18, 01:37:04,VALID,1004.94,VALID,0,VALID,81.0569,VALID,0,VALID,25.9817,VALID,344,VALID,0.878125,
2009-12-18, 01:38:04,VALID,1004.96,VALID,0,VALID,81.1026,VALID,0,VALID,25.9817,VALID,336,VALID,0.835547,
2009-12-18, 01:39:04,VALID,1004.95,VALID,0,VALID,81.0187,VALID,0,VALID,25.9427,VALID,355,VALID,0.912891,
2009-12-18, 01:40:04,VALID,1004.95,VALID,0,VALID,81.2018,VALID,0,VALID,25.9622,VALID,351,VALID,0.748047,
2009-12-18, 01:41:04,VALID,1004.94,VALID,0,VALID,81.2781,VALID,0,VALID,25.9232,VALID,332,VALID,0.776953,
2009-12-18, 01:42:04,VALID,1004.9,VALID,0,VALID,81.4993,VALID,0,VALID,25.9232,VALID,350,VALID,0.763281,
2009-12-18, 01:43:04,VALID,1004.9,VALID,0,VALID,81.6595,VALID,0,VALID,25.8648,VALID,346,VALID,0.875781,
2009-12-18, 01:44:04,VALID,1004.86,VALID,0,VALID,81.7282,VALID,0.100563,VALID,25.8434,VALID,357,VALID,0.778906,
2009-12-18, 01:45:04,VALID,1004.87,VALID,0,VALID,82.1402,VALID,0,VALID,25.8259,VALID,357,VALID,0.863281,
2009-12-18, 01:46:04,VALID,1004.85,VALID,0,VALID,81.9952,VALID,0.100563,VALID,25.7655,VALID,355,VALID,1.2457,
2009-12-18, 01:47:04,VALID,1004.84,VALID,0,VALID,81.7587,VALID,0,VALID,25.7655,VALID,358,VALID,0.794922,
2009-12-18, 01:48:04,VALID,1004.82,VALID,0,VALID,81.6367,VALID,0.100563,VALID,25.785,VALID,340,VALID,0.986328,
2009-12-18, 01:49:04,VALID,1004.76,VALID,0,VALID,81.9952,VALID,0,VALID,25.7655,VALID,340,VALID,0.765234,
2009-12-18, 01:50:04,VALID,1004.77,VALID,0,VALID,81.8121,VALID,0,VALID,25.7674,VALID,351,VALID,0.876562,
2009-12-18, 01:51:04,VALID,1004.75,VALID,0,VALID,81.8884,VALID,0.100563,VALID,25.746,VALID,335,VALID,0.700781,
2009-12-18, 01:52:04,VALID,1004.72,VALID,0,VALID,82.163,VALID,0,VALID,25.7265,VALID,356,VALID,0.8,
2009-12-18, 01:53:04,VALID,1004.71,VALID,0,VALID,82.0791,VALID,0,VALID,25.709,VALID,351,VALID,0.95,
2009-12-18, 01:54:04,VALID,1004.67,VALID,0,VALID,82.0715,VALID,0.100563,VALID,25.709,VALID,333,VALID,0.35,
2009-12-18, 01:55:04,VALID,1004.61,VALID,0,VALID,81.9723,VALID,0,VALID,25.6876,VALID,323,VALID,0.582031,
2009-12-18, 01:56:04,VALID,1004.59,VALID,0,VALID,81.9189,VALID,0,VALID,25.6876,VALID,344,VALID,1.09297,
2009-12-18, 01:57:04,VALID,1004.59,VALID,0,VALID,81.9265,VALID,0,VALID,25.7071,VALID,331,VALID,0.570313,
2009-12-18, 01:58:04,VALID,1004.55,VALID,0,VALID,81.9952,VALID,0,VALID,25.7071,VALID,337,VALID,0.671094,
2009-12-18, 01:59:04,VALID,1004.53,VALID,0,VALID,81.7816,VALID,0,VALID,25.6662,VALID,339,VALID,0.996875,
2009-12-18, 02:00:04,VALID,1004.51,VALID,0,VALID,82.0181,VALID,0.100563,VALID,25.6876,VALID,352,VALID,0.770312,
2009-12-18, 02:01:04,VALID,1004.48,VALID,0,VALID,81.9265,VALID,0,VALID,25.6895,VALID,342,VALID,1.00273,
2009-12-18, 02:02:04,VALID,1004.44,VALID,0,VALID,81.6595,VALID,0,VALID,25.6681,VALID,323,VALID,0.946094,
2009-12-18, 02:03:04,VALID,1004.44,VALID,0,VALID,81.8655,VALID,0,VALID,25.709,VALID,355,VALID,0.812891,
2009-12-18, 02:04:04,VALID,1004.38,VALID,0,VALID,82.163,VALID,0,VALID,25.67,VALID,5,VALID,0.840625,
2009-12-18, 02:05:04,VALID,1004.41,VALID,0,VALID,82.3232,VALID,0,VALID,25.6097,VALID,11,VALID,0.360547,
2009-12-18, 02:06:04,VALID,1004.38,VALID,0,VALID,82.308,VALID,0,VALID,25.5707,VALID,346,VALID,0.925391,
2009-12-18, 02:07:04,VALID,1004.41,VALID,0,VALID,82.4682,VALID,0,VALID,25.5707,VALID,330,VALID,0.754687,
2009-12-18, 02:08:04,VALID,1004.43,VALID,0,VALID,82.2775,VALID,0,VALID,25.5707,VALID,1,VALID,0.875781,
2009-12-18, 02:09:04,VALID,1004.39,VALID,0,VALID,82.3309,VALID,0,VALID,25.5902,VALID,358,VALID,1.03359,
2009-12-18, 02:10:04,VALID,1004.42,VALID,0,VALID,82.4987,VALID,0,VALID,25.5493,VALID,352,VALID,0.504687,
2009-12-18, 02:11:04,VALID,1004.4,VALID,0,VALID,82.4911,VALID,0,VALID,25.5318,VALID,352,VALID,1.1043,
2009-12-18, 02:12:04,VALID,1004.42,VALID,0,VALID,82.6208,VALID,0.100563,VALID,25.5123,VALID,309,VALID,0.655469,
2009-12-18, 02:13:04,VALID,1004.4,VALID,0,VALID,82.7123,VALID,0,VALID,25.4909,VALID,314,VALID,0.712891,
2009-12-18, 02:14:04,VALID,1004.42,VALID,0,VALID,82.8725,VALID,0,VALID,25.4928,VALID,357,VALID,0.194531,
2009-12-18, 02:15:04,VALID,1004.4,VALID,0,VALID,82.903,VALID,0,VALID,25.4928,VALID,261,VALID,0.360547,
2009-12-18, 02:16:04,VALID,1004.39,VALID,0,VALID,82.6971,VALID,0,VALID,25.4734,VALID,309,VALID,0.784375,
2009-12-18, 02:17:04,VALID,1004.36,VALID,0,VALID,82.7657,VALID,0,VALID,25.5123,VALID,259,VALID,0.332812,
2009-12-18, 02:18:04,VALID,1004.31,VALID,0,VALID,82.7657,VALID,0,VALID,25.5123,VALID,350,VALID,1.29258,
2009-12-18, 02:19:04,VALID,1004.32,VALID,0,VALID,82.4072,VALID,0,VALID,25.5707,VALID,215,VALID,1.21719,
2009-12-18, 02:20:04,VALID,1004.31,VALID,0,VALID,81.4307,VALID,0.100563,VALID,25.7265,VALID,281,VALID,1.47656,
2009-12-18, 02:21:04,VALID,1004.26,VALID,0,VALID,80.6449,VALID,0,VALID,25.9018,VALID,267,VALID,0.733984,
2009-12-18, 02:22:04,VALID,1004.27,VALID,0,VALID,80.2863,VALID,0,VALID,26.0187,VALID,328,VALID,0.271094,
2009-12-18, 02:23:04,VALID,1004.3,VALID,0,VALID,79.821,VALID,0,VALID,26.0771,VALID,281,VALID,0.780469,
2009-12-18, 02:24:04,VALID,1004.31,VALID,0,VALID,79.6608,VALID,0.100563,VALID,26.116,VALID,3,VALID,0.961719,
2009-12-18, 02:25:04,VALID,1004.31,VALID,0,VALID,79.47,VALID,0,VALID,26.155,VALID,346,VALID,0.719141,
2009-12-18, 02:26:04,VALID,1004.36,VALID,0,VALID,79.3327,VALID,0.100563,VALID,26.1725,VALID,3,VALID,1.4043,
2009-12-18, 02:27:04,VALID,1004.39,VALID,0,VALID,79.2183,VALID,0,VALID,26.2154,VALID,280,VALID,0.76875,
2009-12-18, 02:28:04,VALID,1004.42,VALID,0,VALID,79.3251,VALID,0.100563,VALID,26.2134,VALID,280,VALID,0.288281,
2009-12-18, 02:29:04,VALID,1004.38,VALID,0,VALID,79.3327,VALID,0,VALID,26.2134,VALID,337,VALID,0.622656,
2009-12-18, 02:30:04,VALID,1004.44,VALID,0,VALID,79.3022,VALID,0.100563,VALID,26.194,VALID,344,VALID,0.777344,
2009-12-18, 02:31:04,VALID,1004.42,VALID,0,VALID,79.5082,VALID,0,VALID,26.155,VALID,321,VALID,0.731641,
2009-12-18, 02:32:04,VALID,1004.4,VALID,0,VALID,79.6608,VALID,0,VALID,26.1745,VALID,277,VALID,0.870703,
2009-12-18, 02:33:04,VALID,1004.42,VALID,0,VALID,79.6074,VALID,0.100563,VALID,26.1959,VALID,280,VALID,0.922266,
2009-12-18, 02:34:04,VALID,1004.44,VALID,0,VALID,79.6074,VALID,0,VALID,26.155,VALID,339,VALID,0.637109,
2009-12-18, 02:35:04,VALID,1004.43,VALID,0,VALID,79.7676,VALID,0.100563,VALID,26.1355,VALID,293,VALID,0.715234,
2009-12-18, 02:36:04,VALID,1004.45,VALID,0,VALID,79.9964,VALID,0,VALID,26.116,VALID,295,VALID,0.462109,
2009-12-18, 02:37:04,VALID,1004.47,VALID,0,VALID,80.0193,VALID,0,VALID,26.0771,VALID,340,VALID,0.199219,
2009-12-18, 02:38:04,VALID,1004.5,VALID,0,VALID,80.1795,VALID,0.100563,VALID,26.0576,VALID,315,VALID,0.355078,
2009-12-18, 02:39:04,VALID,1004.48,VALID,0,VALID,80.2406,VALID,0,VALID,26.0187,VALID,292,VALID,0.00585938,
2009-12-18, 02:40:04,VALID,1004.47,VALID,0,VALID,80.4542,VALID,0,VALID,25.9797,VALID,292,VALID,0.0644531,
2009-12-18, 02:41:04,VALID,1004.49,VALID,0,VALID,80.4465,VALID,0.100563,VALID,25.9602,VALID,334,VALID,0.615234,
2009-12-18, 02:42:04,VALID,1004.48,VALID,0,VALID,80.6678,VALID,0,VALID,25.9213,VALID,329,VALID,0.353125,
2009-12-18, 02:43:04,VALID,1004.49,VALID,0,VALID,80.7746,VALID,0,VALID,25.9038,VALID,344,VALID,0.648047,
2009-12-18, 02:44:04,VALID,1004.49,VALID,0,VALID,80.9882,VALID,0,VALID,25.8843,VALID,346,VALID,0.303516,
2009-12-18, 02:45:04,VALID,1004.47,VALID,0,VALID,81.2171,VALID,0,VALID,25.8239,VALID,344,VALID,0.0667969,
2009-12-18, 02:46:04,VALID,1004.47,VALID,0,VALID,81.1789,VALID,0,VALID,25.785,VALID,338,VALID,0.227734,
2009-12-18, 02:47:04,VALID,1004.45,VALID,0,VALID,81.3239,VALID,0,VALID,25.7655,VALID,306,VALID,0.143359,
2009-12-18, 02:48:04,VALID,1004.44,VALID,0,VALID,81.568,VALID,0,VALID,25.7655,VALID,287,VALID,0.588281,
2009-12-18, 02:49:04,VALID,1004.44,VALID,0,VALID,81.507,VALID,0,VALID,25.746,VALID,298,VALID,0.44375,
2009-12-18, 02:50:04,VALID,1004.4,VALID,0,VALID,81.3391,VALID,0,VALID,25.7869,VALID,262,VALID,0.811719,
2009-12-18, 02:51:04,VALID,1004.37,VALID,0,VALID,81.1026,VALID,0,VALID,25.8239,VALID,278,VALID,1.28047,
2009-12-18, 02:52:04,VALID,1004.38,VALID,0,VALID,81.1408,VALID,0,VALID,25.8629,VALID,266,VALID,0.409766,
2009-12-18, 02:53:04,VALID,1004.36,VALID,0,VALID,81.1026,VALID,0,VALID,25.9038,VALID,278,VALID,0.598828,
2009-12-18, 02:54:04,VALID,1004.4,VALID,0,VALID,81.034,VALID,0,VALID,25.8823,VALID,297,VALID,0.985156,
2009-12-18, 02:55:04,VALID,1004.39,VALID,0,VALID,80.8814,VALID,0,VALID,25.9232,VALID,316,VALID,0.678516,
2009-12-18, 02:56:04,VALID,1004.4,VALID,0,VALID,80.828,VALID,0,VALID,25.9427,VALID,284,VALID,0.970312,
2009-12-18, 02:57:04,VALID,1004.42,VALID,0,VALID,80.8661,VALID,0,VALID,25.9408,VALID,286,VALID,0.680078,
2009-12-18, 02:58:04,VALID,1004.44,VALID,0,VALID,80.6983,VALID,0,VALID,25.9797,VALID,280,VALID,0.988281,
2009-12-18, 02:59:04,VALID,1004.43,VALID,0,VALID,80.7746,VALID,0,VALID,25.9992,VALID,272,VALID,0.686328,
2009-12-18, 03:00:04,VALID,1004.48,VALID,0,VALID,80.7593,VALID,0,VALID,25.9992,VALID,267,VALID,0.313281,
2009-12-18, 03:01:04,VALID,1004.47,VALID,0,VALID,80.9119,VALID,0,VALID,25.9797,VALID,271,VALID,0.613281,
2009-12-18, 03:02:04,VALID,1004.47,VALID,0,VALID,81.0111,VALID,0,VALID,25.9817,VALID,254,VALID,0.615234,
2009-12-18, 03:03:04,VALID,1004.47,VALID,0,VALID,80.9195,VALID,0,VALID,25.9388,VALID,256,VALID,0.442578,
2009-12-18, 03:04:04,VALID,1004.48,VALID,0,VALID,80.8432,VALID,0,VALID,25.9427,VALID,284,VALID,1.41133,
2009-12-18, 03:05:04,VALID,1004.48,VALID,0,VALID,80.828,VALID,0,VALID,25.9408,VALID,266,VALID,0.480469,
2009-12-18, 03:06:04,VALID,1004.49,VALID,0,VALID,80.9501,VALID,0,VALID,25.9408,VALID,290,VALID,0.776563,
2009-12-18, 03:07:04,VALID,1004.49,VALID,0,VALID,81.0416,VALID,0,VALID,25.9427,VALID,298,VALID,0.807813,
2009-12-18, 03:08:04,VALID,1004.48,VALID,0,VALID,81.2476,VALID,0,VALID,25.9018,VALID,287,VALID,0.404297,
2009-12-18, 03:09:04,VALID,1004.45,VALID,0,VALID,81.0721,VALID,0,VALID,25.9038,VALID,273,VALID,1.02461,
2009-12-18, 03:10:04,VALID,1004.43,VALID,0,VALID,81.0645,VALID,0.100563,VALID,25.9232,VALID,312,VALID,0.687109,
2009-12-18, 03:11:04,VALID,1004.4,VALID,0,VALID,81.2857,VALID,0,VALID,25.8823,VALID,273,VALID,0.373828,
2009-12-18, 03:12:04,VALID,1004.4,VALID,0,VALID,81.2552,VALID,0,VALID,25.8823,VALID,288,VALID,1.49297,
2009-12-18, 03:13:04,VALID,1004.38,VALID,0,VALID,81.2857,VALID,0,VALID,25.9018,VALID,285,VALID,0.687109,
2009-12-18, 03:14:04,VALID,1004.38,VALID,0,VALID,81.3925,VALID,0,VALID,25.9018,VALID,281,VALID,0.152344,
2009-12-18, 03:15:04,VALID,1004.38,VALID,0,VALID,81.3467,VALID,0,VALID,25.9018,VALID,281,VALID,0.461719,
2009-12-18, 03:16:04,VALID,1004.42,VALID,0,VALID,81.3696,VALID,0,VALID,25.9213,VALID,297,VALID,1.07227,
2009-12-18, 03:17:04,VALID,1004.39,VALID,0,VALID,81.5375,VALID,0.100563,VALID,25.9427,VALID,266,VALID,0.122656,
2009-12-18, 03:18:04,VALID,1004.42,VALID,0,VALID,81.4841,VALID,0,VALID,25.9427,VALID,320,VALID,0.719141,
2009-12-18, 03:19:04,VALID,1004.43,VALID,0,VALID,81.423,VALID,0,VALID,25.9427,VALID,331,VALID,0.327734,
2009-12-18, 03:20:04,VALID,1004.42,VALID,0,VALID,81.507,VALID,0.100563,VALID,25.9213,VALID,324,VALID,0.307422,
2009-12-18, 03:21:04,VALID,1004.4,VALID,0,VALID,81.6061,VALID,0,VALID,25.9213,VALID,345,VALID,0.651563,
2009-12-18, 03:22:04,VALID,1004.4,VALID,0,VALID,81.4383,VALID,0,VALID,25.9427,VALID,352,VALID,1.12422,
2009-12-18, 03:23:04,VALID,1004.4,VALID,0,VALID,81.4307,VALID,0,VALID,25.9622,VALID,258,VALID,0.563672,
2009-12-18, 03:24:04,VALID,1004.38,VALID,0,VALID,81.5756,VALID,0,VALID,25.9408,VALID,345,VALID,0.178125,
2009-12-18, 03:25:04,VALID,1004.37,VALID,0,VALID,81.7053,VALID,0,VALID,25.9427,VALID,357,VALID,0.3875,
2009-12-18, 03:26:04,VALID,1004.38,VALID,0,VALID,81.7129,VALID,0,VALID,25.9018,VALID,314,VALID,0.401172,
2009-12-18, 03:27:04,VALID,1004.41,VALID,0,VALID,81.7587,VALID,0,VALID,25.9018,VALID,278,VALID,0.623828,
2009-12-18, 03:28:04,VALID,1004.41,VALID,0,VALID,81.6138,VALID,0,VALID,25.9038,VALID,306,VALID,0.729297,
2009-12-18, 03:29:04,VALID,1004.43,VALID,0,VALID,81.4688,VALID,0,VALID,25.9232,VALID,329,VALID,0.965234,
2009-12-18, 03:30:04,VALID,1004.41,VALID,0,VALID,81.4536,VALID,0,VALID,25.9232,VALID,355,VALID,0.859766,
2009-12-18, 03:31:04,VALID,1004.45,VALID,0,VALID,81.5451,VALID,0,VALID,25.9213,VALID,258,VALID,0.648047,
2009-12-18, 03:32:04,VALID,1004.52,VALID,0,VALID,81.6367,VALID,0,VALID,25.9213,VALID,281,VALID,1.38672,
2009-12-18, 03:33:04,VALID,1004.48,VALID,0,VALID,81.629,VALID,0,VALID,25.9408,VALID,344,VALID,0.453516,
2009-12-18, 03:34:04,VALID,1004.52,VALID,0,VALID,81.6595,VALID,0,VALID,25.9622,VALID,295,VALID,0.714453,
2009-12-18, 03:35:04,VALID,1004.53,VALID,0,VALID,81.8655,VALID,0,VALID,25.9408,VALID,275,VALID,0.817969,
2009-12-18, 03:36:04,VALID,1004.55,VALID,0,VALID,82.1936,VALID,0,VALID,25.9602,VALID,301,VALID,0.820313,
2009-12-18, 03:37:04,VALID,1004.56,VALID,0,VALID,82.3232,VALID,0,VALID,25.9992,VALID,294,VALID,1.26133,
2009-12-18, 03:38:04,VALID,1004.56,VALID,0,VALID,82.0181,VALID,0,VALID,26.0381,VALID,288,VALID,1.57344,
2009-12-18, 03:39:04,VALID,1004.6,VALID,0,VALID,81.9113,VALID,0,VALID,26.0966,VALID,294,VALID,1.30859,
2009-12-18, 03:40:04,VALID,1004.59,VALID,0,VALID,81.9113,VALID,0,VALID,26.1375,VALID,333,VALID,0.775391,
2009-12-18, 03:41:04,VALID,1004.61,VALID,0,VALID,81.8884,VALID,0,VALID,26.157,VALID,288,VALID,0.527344,
2009-12-18, 03:42:04,VALID,1004.64,VALID,0,VALID,81.9342,VALID,0,VALID,26.155,VALID,225,VALID,0.437109,